Find Starlink 34168

NORAD ID: 64079 Int'l Des: 2025-107 Owner: SPXS Country: US Constellation: starlink operational
LEOCIRCULAR

リアルタイム位置

3D地球を読み込み中...

Starlink 34168について

説明を読み込み中...

次回通過

Passes for default location (London). Set your location on the main map for personalized predictions.

高度履歴

Loading altitude history...

軌道要素

1 64079U 25107R 26120.67046252 .00019942 00000-0 73178-3 0 9998
2 64079 43.0017 267.6930 0002024 267.1244 92.9376 15.27600236 54074
Epoch: Apr 30, 2026 • Age: 23 hours

現在のステータス

高度 493.2 km
速度 7.62 km/s
衛星直下点 -39.02°S, 112.81°E
打ち上げ日 May 21, 2025
運用期間 0.9 years
タイプ internet

技術仕様

分類 Payload
質量 575.00 kg
乾燥質量 530.00 kg
総質量 575.00 kg
長さ 0.30 m
直径 4.10 m
スパン 29.00 m
形状 Box + pan
製造者 SPXS
バスタイプ Starlink V2MO
フェーズステータス In Orbit
所有者/国 SPXS/US

Most Searched